FW1313 Weather Reports


Display with metric or nautical units.
time (UTC)temp
F
wind
direction
speed
MPH
gust
MPH
rain 1hr
in
rain 24hr
in
rain mn
in
humidity
%
barometer
mb
20260901190408 69 169 0.0 2.0 0.00 0.00 0.00 26 1016.5
20260901183407 69 189 0.0 2.0 0.00 0.00 0.00 21 1016.4
20260901180410 69 193 0.0 1.0 0.00 0.00 0.00 23 1016.1
20260901173408 67 165 0.0 0.0 0.00 0.00 0.00 22 1015.7
20260901170407 64 125 0.0 1.0 0.00 0.00 0.00 23 1015.5
20260901163407 60 153 0.0 1.0 0.00 0.00 0.00 26 1015.2
20260901160407 59 153 0.0 0.0 0.00 0.00 0.00 27 1015.0
20260901153408 58 134 0.0 0.0 0.00 0.00 0.00 26 1014.7
20260901150408 57 114 0.0 0.0 0.00 0.00 0.00 27 1014.5
20260901143408 56 102 0.0 1.0 0.00 0.00 0.00 25 1014.3
20260901140408 56 104 0.0 1.0 0.00 0.00 0.00 25 1014.0
20260901133407 56 89 0.0 0.0 0.00 0.00 0.00 24 1013.7
20260901130407 55 108 0.0 0.0 0.00 0.00 0.00 26 1013.4
20260901123408 55 103 0.0 0.0 0.00 0.00 0.00 31 1013.4
20260901120408 55 118 0.0 1.0 0.00 0.00 0.00 52 1013.5
20260901113408 55 127 0.0 0.0 0.00 0.00 0.00 54 1013.8
20260901110411 56 108 0.0 0.0 0.00 0.00 0.00 40 1014.2
20260901103408 56 111 0.0 1.0 0.00 0.00 0.00 37 1014.5
20260901100410 56 104 0.0 1.0 0.00 0.00 0.00 41 1014.9
20260901093407 56 104 0.0 0.0 0.00 0.00 0.00 46 1015.3
20260901090408 57 115 0.0 0.0 0.00 0.00 0.00 41 1015.6
20260901083407 57 116 0.0 0.0 0.00 0.00 0.00 37 1016.1
20260901080407 57 101 0.0 0.0 0.00 0.00 0.00 37 1016.7
20260901073407 57 104 0.0 0.0 0.00 0.00 0.00 33 1016.9
20260901070408 56 100 0.0 0.0 0.00 0.00 0.00 35 1017.1
20260901063408 56 136 0.0 0.0 0.00 0.00 0.00 41 1017.4
20260901060408 57 138 0.0 0.0 0.00 0.00 0.00 57 1017.6
20260901053407 57 91 0.0 0.0 0.00 0.00 0.00 57 1018.1
20260901050408 57 91 0.0 0.0 0.00 0.00 0.00 59 1018.3
20260901043407 58 98 0.0 0.0 0.00 0.00 0.00 58 1018.2
20260901040407 57 91 0.0 1.0 0.00 0.00 0.00 53 1018.1
20260901033407 57 96 0.0 0.0 0.00 0.00 0.00 60 1017.7
20260901030408 57 95 0.0 0.0 0.00 0.00 0.00 59 1017.3
20260901023408 58 108 0.0 0.0 0.00 0.00 0.00 57 1017.0
20260901020407 61 201 0.0 0.0 0.00 0.00 0.00 54 1016.9
20260901013407 63 169 0.0 0.0 0.00 0.00 0.00 53 1016.7
20260901010407 65 162 0.0 0.0 0.00 0.00 0.00 54 1016.6
20260901003408 68 242 0.0 1.0 0.00 0.00 0.00 51 1016.6
20260901000407 69 177 0.0 1.0 0.00 0.00 0.00 47 1016.4
20260831233407 71 211 0.0 1.0 0.00 0.00 0.00 45 1016.2
20260831230408 71 199 0.0 1.0 0.00 0.00 0.00 43 1016.0
20260831223408 72 184 0.0 1.0 0.00 0.00 0.00 41 1016.2
20260831220407 72 165 0.0 1.0 0.00 0.00 0.00 36 1016.4
20260831213408 73 212 0.0 1.0 0.00 0.00 0.00 35 1016.5
20260831210407 74 201 0.0 1.0 0.00 0.00 0.00 31 1016.3
20260831203407 75 174 0.0 1.0 0.00 0.00 0.00 30 1016.3
20260831200407 75 224 0.0 1.0 0.00 0.00 0.00 29 1015.9
20260831193408 75 203 0.0 0.0 0.00 0.00 0.00 28 1015.7